Location: Czu?�w
(50.1404°N, 18.9919°E)
Time: 02:58:37
(UTC+00:00)

Cosmos 968 Rocket - Pass Details

Date: 27 October 2020
Orbit: 741 x 770 km, 74.0° (Epoch: 27 November)

Event Time Altitude Azimuth Distance (km) Brightness Sun altitude
Rises 16:14:57 0° 339° (NNW) 3,246 6.9 -8.0°
Reaches altitude 10° 16:17:29 10° 347° (NNW) 2,312 6.0 -8.4°
Maximum altitude 16:22:26 41° 57° (ENE) 1,105 3.9 -9.2°
Drops below altitude 10° 16:27:18 10° 127° (SE) 2,280 5.6 -9.9°
Sets 16:29:47 0° 135° (SE) 3,196 6.4 -10.3°
